SITRO-AIS 50

Last updated on Sun May 04 2025 00:03:40 GMT+0000 (Coordinated Universal Time)

1 59061U 24039L 25123.34932630 .05152647 24950-5 14865-2 0 9993 2 59061 97.3878 99.8504 0008711 186.8241 173.2934 16.27406260 66170
UTC large
Height (km)
Speed (km/s)
/
Latitude / Longitude
Inclination (degrees)
Orbital Period (minutes)
Azimuth
Elevation
Range (km)
Doppler Factor

Next 0 passes for location: London (51.5072 / 0.1276)

Sorry there are no passes over London.
SITRO-AIS 50